Overview Statistics Trail Chart Weather Telemetry Raw packets
 

This is the latest recevied weather packets stored in our database for station/object EA2FBA-10. If no packets are shown the sender has not sent any weather packets the latest 10 day(s).

<< 44 45 46 47 48 49 50 >>
Time Temp. Humidity Pressure Rain* Wind** Luminosity Snow
1788020726 25.56° C 40% 955 hPa - - - -
1788020715 25.56° C 40% 955 hPa - - - -
1788019815 25.56° C 39% 954.9 hPa - - - -
1788018914 25° C 38% 955.1 hPa - - - -
1788018024 25.56° C 36% 955.1 hPa - - - -
1788018014 25.56° C 36% 955.1 hPa - - - -
1788017114 25° C 38% 955.2 hPa - - - -
1788016214 25° C 36% 955.4 hPa - - - -
1788015323 25° C 37% 955.6 hPa - - - -
1788015314 25° C 37% 955.6 hPa - - - -
1788014414 25° C 37% 955.6 hPa - - - -
1788013523 24.44° C 36% 954.5 hPa - - - -
1788013514 24.44° C 36% 954.5 hPa - - - -
1788012623 25° C 37% 955.9 hPa - - - -
1788012614 25° C 37% 955.9 hPa - - - -
1788011714 25° C 35% 955.9 hPa - - - -
1788010814 24.44° C 38% 956.1 hPa - - - -
1788009913 24.44° C 35% 956.2 hPa - - - -
1788009023 24.44° C 36% 956.4 hPa - - - -
1788009013 24.44° C 36% 956.4 hPa - - - -
1788008113 23.89° C 38% 956.5 hPa - - - -
1788007223 23.89° C 35% 956.6 hPa - - - -
1788007213 23.89° C 35% 956.6 hPa - - - -
1788006324 23.89° C 38% 956.7 hPa - - - -
1788006314 23.89° C 38% 956.7 hPa - - - -

* Rain since midnight (hover to see other rain measurements)
** Current wind speed in m/s (hover to see current wind gust speed)